Home   Weather   Nagano   Past weeks

Flag for Japan Past Weather in Nagano, Japan — Yesterday and Last 2 Weeks

Now
61 °F

Cool.


Feels Like: 61 °F
Forecast: 47 / 72 °F
Wind: 9 mph from East

Location: Nagano

Current Time: May 27, 2017 at 9:47:43 am

Latest Report: May 27, 2017 at 8:00 am


Visibility: N/A

Pressure: 29.76 "Hg

Humidity: 74%

Dew Point: 53 °F

Location of NaganoLocation

Past Weather in Nagano — Graph

°F

Nagano Temperature Yesterday

Maximum temperature yesterday: 69 °F (at 11:00 am)
Minimum temperature yesterday: 57 °F (at 11:00 pm)
Average temperature yesterday: 64 °F

High & Low Weather Summary for the Past Weeks

 TemperatureHumidityPressure
High87 °F (May 21, 1:00 pm)100% (May 25, 3:00 am)30.09 "Hg (May 25, 3:00 am)
Low50 °F (May 16, 5:00 am)24% (May 19, 1:00 pm)29.57 "Hg (May 26, 2:00 pm)
Average65 °F69%29.84 "Hg
* Reported May 12 8:00 am — May 27 8:00 am, Nagano. Weather by CustomWeather, © 2017

Note: Actual official high and low records may vary slightly from our data, if they occured in-between our weather recording intervals... More about our weather records

Advertising

Nagano Weather History for the Previous 24 Hours

Scroll right to see more
 ConditionsComfort  
Time TempWeatherWind HumidityBarometerVisibility
8:00 am
Sat, May 27
61 °FCool.9 mph74%29.76 "HgN/A
7:00 am57 °FCool.6 mph81%29.78 "HgN/A
6:00 am55 °FCool.3 mph89%29.77 "HgN/A
5:00 am54 °FCool.3 mph90%29.75 "HgN/A
4:00 am55 °FCool.5 mph89%29.74 "HgN/A
3:00 am55 °FOvercast.7 mph90%29.74 "Hg6 mi
2:00 am56 °FCool.3 mph87%29.72 "HgN/A
1:00 am56 °FCool.7 mph88%29.72 "HgN/A
12:00 am57 °FCool.9 mph88%29.73 "HgN/A
11:00 pm
Fri, May 26
57 °FCool.6 mph91%29.72 "HgN/A
10:00 pm58 °FCool.6 mph93%29.72 "HgN/A
9:00 pm60 °FSprinkles. Overcast.7 mph83%29.68 "Hg9 mi
8:00 pm63 °FMild.5 mph87%29.65 "HgN/A
7:00 pm65 °FMild.5 mph80%29.62 "HgN/A
6:00 pm66 °FMild.2 mph79%29.61 "HgN/A
5:00 pm66 °FMild.3 mph77%29.59 "HgN/A
4:00 pm67 °FMild.7 mph77%29.59 "HgN/A
3:00 pm67 °FSprinkles. Overcast.7 mph79%29.58 "Hg12 mi
2:00 pm69 °FMild.9 mph71%29.57 "HgN/A
1:00 pm68 °FMild.8 mph71%29.59 "HgN/A
12:00 pm68 °FMild.12 mph70%29.60 "HgN/A
11:00 am69 °FMild.9 mph68%29.60 "HgN/A
10:00 am68 °FMild.10 mph69%29.61 "HgN/A
9:00 am67 °FOvercast.12 mph71%29.61 "Hg12 mi
Weather by CustomWeather, © 2017

See weather overviewHow to use our weather pages